TimeEET,TemperatureF,Dew PointF,Humidity,Sea Level PressureIn,VisibilityMPH,Wind Direction,Wind SpeedMPH,Gust SpeedMPH,PrecipitationIn,Events,Conditions,WindDirDegrees,DateUTC
12:00 AM,64.4,48.2,56,30.09,-9999.0,NNE,10.4,-,N/A,,Clear,30,2013-10-06 22:00:00
12:30 AM,64.4,48.2,56,30.09,-9999.0,NNE,10.4,-,N/A,,Clear,30,2013-10-06 22:30:00
1:00 AM,62.6,48.2,59,30.09,-9999.0,NE,8.1,-,N/A,,Clear,40,2013-10-06 23:00:00
1:30 AM,62.6,48.2,59,30.09,-9999.0,NNE,6.9,-,N/A,,Clear,30,2013-10-06 23:30:00
2:00 AM,63,47,46,30.06,6,NE,6.9,,,,,50,2013-10-07 00:00:00
2:00 AM,62.6,48.2,59,30.09,-9999.0,NE,6.9,-,N/A,,Clear,50,2013-10-07 00:00:00
2:30 AM,62.6,46.4,55,30.06,-9999.0,NE,6.9,-,N/A,,Clear,50,2013-10-07 00:30:00
3:00 AM,64.4,46.4,52,30.06,-9999.0,North,10.4,-,N/A,,Clear,10,2013-10-07 01:00:00
3:30 AM,64.4,46.4,52,30.06,-9999.0,North,10.4,-,N/A,,Clear,10,2013-10-07 01:30:00
4:00 AM,64.4,46.4,52,30.09,-9999.0,North,11.5,-,N/A,,Clear,10,2013-10-07 02:00:00
4:30 AM,64.4,46.4,52,30.09,-9999.0,North,11.5,-,N/A,,Clear,10,2013-10-07 02:30:00
5:00 AM,64.4,46.4,52,30.09,-9999.0,North,9.2,-,N/A,,Clear,10,2013-10-07 03:00:00
5:30 AM,64.4,46.4,52,30.09,-9999.0,North,9.2,-,N/A,,Clear,10,2013-10-07 03:30:00
6:00 AM,64.4,46.4,52,30.09,-9999.0,North,9.2,-,N/A,,Clear,10,2013-10-07 04:00:00
6:30 AM,64.4,46.4,52,30.09,-9999.0,North,9.2,-,N/A,,Clear,10,2013-10-07 04:30:00
7:00 AM,64.4,46.4,52,30.12,-9999.0,North,9.2,-,N/A,,Clear,10,2013-10-07 05:00:00
7:30 AM,66.2,46.4,49,30.12,-9999.0,North,11.5,-,N/A,,Clear,10,2013-10-07 05:30:00
8:00 AM,67,45,34,30.14,6,North,13.8,,,,,0,2013-10-07 06:00:00
8:00 AM,66.2,44.6,46,30.12,-9999.0,North,13.8,-,N/A,,Clear,360,2013-10-07 06:00:00
8:30 AM,69.8,48.2,46,30.12,-9999.0,North,13.8,-,N/A,,Clear,360,2013-10-07 06:30:00
9:00 AM,69.8,48.2,46,30.12,-9999.0,North,13.8,-,N/A,,Clear,360,2013-10-07 07:00:00
9:30 AM,71.6,48.2,43,30.12,-9999.0,North,13.8,-,N/A,,Clear,360,2013-10-07 07:30:00
10:00 AM,73.4,46.4,38,30.12,-9999.0,NNE,17.3,-,N/A,,Clear,30,2013-10-07 08:00:00
10:30 AM,73.4,46.4,38,30.12,-9999.0,NNE,17.3,-,N/A,,Clear,30,2013-10-07 08:30:00
11:00 AM,73.4,48.2,41,30.12,-9999.0,NNE,17.3,-,N/A,,Clear,20,2013-10-07 09:00:00
11:30 AM,75.2,46.4,36,30.09,-9999.0,NNE,17.3,-,N/A,,Clear,20,2013-10-07 09:30:00
12:00 PM,75.2,46.4,36,30.09,-9999.0,North,15.0,-,N/A,,Clear,10,2013-10-07 10:00:00
12:30 PM,77.0,44.6,32,30.06,-9999.0,North,16.1,-,N/A,,Clear,10,2013-10-07 10:30:00
1:00 PM,78.8,44.6,30,30.06,-9999.0,North,16.1,-,N/A,,Clear,360,2013-10-07 11:00:00
1:30 PM,78.8,44.6,30,30.06,-9999.0,North,17.3,-,N/A,,Clear,10,2013-10-07 11:30:00
2:00 PM,78,46,21,30.08,6,NNE,18.4,,,,,20,2013-10-07 12:00:00
2:00 PM,77.0,46.4,34,30.06,-9999.0,NNE,18.4,-,N/A,,Clear,20,2013-10-07 12:00:00
2:30 PM,77.0,46.4,34,30.06,-9999.0,NNE,21.9,-,N/A,,Clear,30,2013-10-07 12:30:00
3:00 PM,77.0,46.4,34,30.06,-9999.0,NNE,17.3,-,N/A,,Clear,20,2013-10-07 13:00:00
3:30 PM,77.0,46.4,34,30.06,-9999.0,NNE,20.7,-,N/A,,Clear,30,2013-10-07 13:30:00
4:00 PM,75.2,46.4,36,30.09,-9999.0,NNE,20.7,-,N/A,,Clear,20,2013-10-07 14:00:00
4:30 PM,75.2,44.6,34,30.09,-9999.0,NNE,20.7,-,N/A,,Clear,30,2013-10-07 14:30:00
5:00 PM,73.4,46.4,38,30.09,-9999.0,NNE,21.9,-,N/A,,Clear,20,2013-10-07 15:00:00
5:30 PM,71.6,46.4,41,30.09,-9999.0,NNE,21.9,-,N/A,,Clear,20,2013-10-07 15:30:00
6:00 PM,71.6,44.6,38,30.09,-9999.0,NNE,20.7,-,N/A,,Clear,30,2013-10-07 16:00:00
6:30 PM,69.8,44.6,40,30.12,-9999.0,NNE,17.3,-,N/A,,Clear,20,2013-10-07 16:30:00
7:00 PM,69.8,44.6,40,30.12,-9999.0,NNE,16.1,-,N/A,,Clear,20,2013-10-07 17:00:00
7:30 PM,69.8,46.4,43,30.12,-9999.0,NNE,15.0,-,N/A,,Clear,20,2013-10-07 17:30:00
8:00 PM,69,47,34,30.14,6,NNE,13.8,,,,Partly Cloudy,20,2013-10-07 18:00:00
8:00 PM,69.8,46.4,43,30.15,-9999.0,NNE,13.8,-,N/A,,Clear,20,2013-10-07 18:00:00
8:30 PM,68.0,48.2,49,30.15,-9999.0,NNE,13.8,-,N/A,,Clear,20,2013-10-07 18:30:00
9:00 PM,68.0,48.2,49,30.15,-9999.0,North,12.7,-,N/A,,Clear,10,2013-10-07 19:00:00
9:30 PM,68.0,48.2,49,30.15,-9999.0,North,11.5,-,N/A,,Clear,350,2013-10-07 19:30:00
10:00 PM,66.2,48.2,52,30.12,-9999.0,North,11.5,-,N/A,,Clear,350,2013-10-07 20:00:00
10:30 PM,66.2,50.0,56,30.12,-9999.0,North,11.5,-,N/A,,Clear,350,2013-10-07 20:30:00
11:00 PM,66.2,50.0,56,30.12,-9999.0,North,10.4,-,N/A,,Clear,360,2013-10-07 21:00:00
11:30 PM,66.2,50.0,56,30.12,-9999.0,NNE,18.4,-,N/A,,Clear,20,2013-10-07 21:30:00